Central Victoria, Mexico

5:22 PM on June 27, 2017 (GMT +0000)
Central Victoria

Weather History for 76649 - May, 2013

Change the Weather History Date:

Wednesday, May 1, 2013

  Actual Average Record
Temperature  
Mean Temperature 80 °F -  
Max Temperature 86 °F 87 °F - ()
Min Temperature 75 °F 75 °F - ()
Cooling Degree Days 16    
Growing Degree Days 30 (Base 50)    
Moisture  
Dew Point 72 °F    
Average Humidity 78    
Maximum Humidity 89    
Minimum Humidity 66    
Precipitation  
Precipitation 0.00 in - - ()
Sea Level Pressure  
Sea Level Pressure 29.84 in    
Wind  
Wind Speed 9 mph ()    
Max Wind Speed 21 mph    
Max Gust Speed 20 mph    
Visibility 7.1 miles    
Events      
T = Trace of Precipitation, MM = Missing Value Source: Averaged Metar Reports

Daily Weather History Graph

Daily Weather History Graph

Search for Another Location

Airport or City:

Trip Planner

Search our weather history database for the weather conditions in past years. The results will help you decide how hot, cold, wet, or windy it might be!

Date:

Astronomy

May. 01, 2013 Rise Set
Actual Time 11:18 AM UTC 12:13 AM UTC
Civil Twilight 10:55 AM UTC 12:37 AM UTC
Nautical Twilight 10:28 AM UTC 1:04 AM UTC
Astronomical Twilight 10:00 AM UTC 1:32 AM UTC
Moon 5:20 AM UTC (5/1) 4:56 PM UTC (5/1)
Length of Visible Light 13h 41m
Length of Day
12h 55m
Waning Gibbous, 61% of the Moon is Illuminated
May 1
Waning Gibbous
May 2
Last Quarter
May 10
New
May 18
First Quarter
May 25
Full

Hourly Weather History & Observations

Time (GMT) Temp. Heat Index Dew Point Humidity Pressure Visibility Wind Dir Wind Speed Gust Speed Precip Events Conditions
12:44 AM 77.0 °F - 69.8 °F 78% 29.83 in 7.0 mi SE 5.8 mph - N/A   Mostly Cloudy
1:46 AM 75.2 °F - 69.8 °F 83% 29.86 in 7.0 mi SE 6.9 mph - N/A   Mostly Cloudy
2:45 AM 75.2 °F - 69.8 °F 83% 29.90 in 7.0 mi SE 9.2 mph - N/A   Scattered Clouds
3:46 AM 75.2 °F - 69.8 °F 83% 29.86 in 7.0 mi SE 9.2 mph - N/A   Partly Cloudy
4:57 AM 75.2 °F - 71.6 °F 89% 29.85 in 7.0 mi SE 11.5 mph - N/A   Partly Cloudy
5:46 AM 75.2 °F - 69.8 °F 83% 29.81 in 7.0 mi SE 11.5 mph - N/A   Partly Cloudy
6:49 AM 75.2 °F - 69.8 °F 83% 29.81 in 7.0 mi SE 11.5 mph - N/A   Partly Cloudy
7:59 AM 75.2 °F - 69.8 °F 83% 29.79 in 7.0 mi SE 12.7 mph - N/A   Partly Cloudy
8:45 AM 77.0 °F - 69.8 °F 78% 29.83 in 7.0 mi SE 13.8 mph - N/A   Partly Cloudy
9:52 AM 75.2 °F - 69.8 °F 83% 29.81 in 7.0 mi SE 9.2 mph - N/A   Partly Cloudy
10:42 AM 77.0 °F - 71.6 °F 83% 29.82 in 7.0 mi SE 5.8 mph - N/A   Partly Cloudy
11:45 AM 75.2 °F - 71.6 °F 89% 29.80 in 7.0 mi SE 5.8 mph - N/A   Scattered Clouds
12:40 PM 78.8 °F - 71.6 °F 78% 29.86 in 7.0 mi SE 13.8 mph - N/A   Mostly Cloudy
1:40 PM 78.8 °F - 73.4 °F 83% 29.86 in 7.0 mi SE 15.0 mph - N/A   Mostly Cloudy
2:41 PM 80.6 °F 85.4 °F 73.4 °F 79% 29.90 in 8.0 mi SE 13.8 mph - N/A   Mostly Cloudy
3:41 PM 82.4 °F 88.2 °F 73.4 °F 74% 29.89 in 7.0 mi South 13.8 mph - N/A   Mostly Cloudy
4:41 PM 82.4 °F 87.2 °F 71.6 °F 70% 29.88 in 7.0 mi SE 20.7 mph - N/A   Mostly Cloudy
5:40 PM 86.0 °F 93.4 °F 73.4 °F 66% 29.83 in 8.0 mi SSE 8.1 mph 19.6 mph N/A   Mostly Cloudy
6:42 PM 86.0 °F 93.4 °F 73.4 °F 66% 29.84 in 7.0 mi SE 17.3 mph - N/A   Mostly Cloudy
7:49 PM 84.2 °F 89.6 °F 71.6 °F 66% 29.83 in 7.0 mi SE 10.4 mph - N/A   Mostly Cloudy
8:41 PM 84.2 °F 90.9 °F 73.4 °F 70% 29.85 in 7.0 mi SE 9.2 mph - N/A   Mostly Cloudy
10:14 PM 82.4 °F 88.2 °F 73.4 °F 74% 29.81 in 8.0 mi SE 12.7 mph - N/A   Mostly Cloudy
10:47 PM 82.4 °F 88.2 °F 73.4 °F 74% 29.80 in 7.0 mi SE 11.5 mph - N/A   Scattered Clouds
11:46 PM 78.8 °F - 73.4 °F 83% 29.78 in 7.0 mi SE 12.7 mph - N/A   Scattered Clouds